Weather History for Syracuse, NY

Change the Weather History Date:

Sunday, November 4, 2012

  Actual Average Record
Temperature  
Mean Temperature 40 °F 45 °F  
Max Temperature 44 °F 53 °F 75 °F (1987)
Min Temperature 36 °F 36 °F 22 °F (2013)
Degree Days  
Heating Degree Days 25 20  
Month to date heating degree days 93 80  
Since 1 July heating degree days 536 697  
Cooling Degree Days 0 0  
Month to date cooling degree days 0 0  
Year to date cooling degree days 953 569  
Moisture  
Dew Point 32 °F    
Average Humidity 75    
Maximum Humidity 89    
Minimum Humidity 60    
Precipitation  
Precipitation T in 0.12 in 1.47 in (1936)
Month to date precipitation 0.38 0.49  
Year to date precipitation 26.51 32.21  
Snow  
Snow T in 0.10 in 3.00 in (1995)
Month to date snowfall T 0.5  
Since 1 July snowfall T 0.9  
Since 1 September snowfall T 0.9  
Snow Depth 0.00 in    
Sea Level Pressure  
Sea Level Pressure 30.04 in    
Wind  
Wind Speed 9 mph (WNW)    
Max Wind Speed 16 mph    
Max Gust Speed 21 mph    
Visibility 10 miles    
Events Rain , Snow    
T = Trace of Precipitation, MM = Missing Value Source: NWS Daily Summary

Daily Weather History Graph

Daily Weather History Graph

Search for Another Location

Airport:

Trip Planner

Search our weather history database for the weather conditions in past years. The results will help you decide how hot, cold, wet, or windy it might be!

Date:

Astronomy

Nov. 04, 2012 Rise Set
Actual Time 6:43 AM EST 4:51 PM EST
Civil Twilight 6:13 AM EST 5:21 PM EST
Nautical Twilight 5:39 AM EST 5:55 PM EST
Astronomical Twilight 5:06 AM EST 6:28 PM EST
Moon 9:26 PM EST (11/4) 11:27 AM EST (11/4)
Length of Visible Light 11h 07m
Length of Day
10h 08m
Waning Gibbous, 72% of the Moon is Illuminated
Nov 4
Waning Gibbous
Nov 6
Last Quarter
Nov 13
New
Nov 20
First Quarter
Nov 28
Full

Hourly Weather History & Observations

Time (EST) Temp. Windchill Dew Point Humidity Pressure Visibility Wind Dir Wind Speed Gust Speed Precip Events Conditions
12:54 AM 39.9 °F 32.9 °F 30.9 °F 70% 30.01 in 10.0 mi WNW 11.5 mph - 0.00 in   Light Drizzle
1:54 AM 39.0 °F 34.0 °F 32.0 °F 76% 30.01 in 10.0 mi WNW 6.9 mph - 0.00 in Rain Light Rain
1:54 AM 39.0 °F 34.0 °F 32.0 °F 76% 30.02 in 10.0 mi WNW 6.9 mph - 0.00 in   Overcast
2:13 AM 39.2 °F 32.5 °F 32.0 °F 75% 30.02 in 10.0 mi NW 10.4 mph - 0.00 in Rain Light Rain
2:54 AM 37.9 °F 32.1 °F 33.1 °F 83% 30.01 in 10.0 mi WNW 8.1 mph - 0.00 in Rain Light Rain
3:54 AM 37.9 °F 31.5 °F 33.1 °F 83% 30.02 in 10.0 mi WNW 9.2 mph - 0.00 in   Light Drizzle
4:54 AM 37.9 °F 33.5 °F 33.1 °F 83% 30.03 in 10.0 mi WNW 5.8 mph - 0.00 in   Light Drizzle
5:10 AM 37.4 °F 33.8 °F 33.8 °F 87% 30.04 in 10.0 mi NW 4.6 mph - 0.00 in   Light Drizzle
5:54 AM 37.9 °F 33.5 °F 33.1 °F 83% 30.04 in 10.0 mi WNW 5.8 mph - 0.00 in   Light Drizzle
6:28 AM 37.4 °F 32.1 °F 33.8 °F 87% 30.05 in 10.0 mi West 6.9 mph - 0.00 in   Light Drizzle
6:54 AM 37.0 °F 29.8 °F 33.1 °F 86% 30.05 in 10.0 mi West 10.4 mph - 0.00 in   Light Drizzle
7:54 AM 37.0 °F 31.6 °F 34.0 °F 89% 30.05 in 10.0 mi West 6.9 mph - 0.00 in   Overcast
8:32 AM 37.4 °F 30.8 °F 33.8 °F 87% 30.05 in 10.0 mi West 9.2 mph - 0.00 in Rain Light Rain
8:39 AM 37.4 °F 32.1 °F 33.8 °F 87% 30.05 in 10.0 mi WNW 6.9 mph - 0.00 in Rain Light Rain
8:43 AM 37.4 °F 31.4 °F 33.8 °F 87% 30.05 in 10.0 mi NW 8.1 mph - 0.00 in Rain Light Rain
8:54 AM 37.9 °F 33.5 °F 34.0 °F 86% 30.05 in 10.0 mi WNW 5.8 mph - 0.00 in Rain Light Rain
9:43 AM 39.2 °F 34.2 °F 33.8 °F 81% 30.04 in 10.0 mi West 6.9 mph - 0.00 in   Overcast
9:54 AM 39.9 °F 33.4 °F 34.0 °F 79% 30.05 in 10.0 mi NW 10.4 mph - 0.00 in Rain Light Rain
10:26 AM 39.2 °F 32.5 °F 30.2 °F 70% 30.05 in 10.0 mi WNW 10.4 mph - 0.00 in   Overcast
10:54 AM 41.0 °F 35.2 °F 30.9 °F 67% 30.05 in 10.0 mi NW 9.2 mph - 0.00 in   Overcast
11:13 AM 39.2 °F 33.0 °F 30.2 °F 70% 30.04 in 10.0 mi WNW 9.2 mph - 0.00 in Rain Light Rain
11:17 AM 39.2 °F 33.0 °F 32.0 °F 75% 30.04 in 10.0 mi West 9.2 mph - 0.00 in Rain Light Rain
11:54 AM 41.0 °F 34.7 °F 30.0 °F 65% 30.04 in 10.0 mi NW 10.4 mph - 0.00 in   Overcast
12:54 PM 42.1 °F 35.7 °F 30.0 °F 62% 30.03 in 10.0 mi WNW 11.5 mph - N/A   Overcast
1:54 PM 42.1 °F 35.2 °F 30.0 °F 62% 30.03 in 10.0 mi WNW 12.7 mph - N/A   Overcast
2:54 PM 41.0 °F 33.9 °F 28.0 °F 60% 30.04 in 10.0 mi WNW 12.7 mph - N/A   Overcast
3:54 PM 39.0 °F 32.3 °F 28.9 °F 67% 30.04 in 10.0 mi NW 10.4 mph - N/A   Overcast
4:54 PM 37.9 °F 30.9 °F 30.0 °F 73% 30.05 in 10.0 mi West 10.4 mph - N/A   Overcast
5:54 PM 37.0 °F 31.0 °F 32.0 °F 82% 30.06 in 10.0 mi WNW 8.1 mph - N/A   Overcast
6:09 PM 37.4 °F 32.8 °F 32.0 °F 81% 30.06 in 10.0 mi WNW 5.8 mph - 0.00 in Rain , Snow Light Rain
6:54 PM 36.0 °F 31.1 °F 32.0 °F 86% 30.07 in 9.0 mi West 5.8 mph - 0.00 in Snow Light Snow
7:45 PM 35.6 °F 28.0 °F 32.0 °F 87% 30.07 in 9.0 mi West 10.4 mph - 0.00 in Snow Light Snow
7:54 PM 36.0 °F 28.0 °F 32.0 °F 86% 30.08 in 9.0 mi WSW 11.5 mph - 0.00 in Snow Light Snow
8:54 PM 36.0 °F 29.0 °F 30.9 °F 82% 30.08 in 10.0 mi WSW 9.2 mph - 0.00 in   Overcast
9:54 PM 36.0 °F 30.3 °F 30.0 °F 79% 30.07 in 10.0 mi West 6.9 mph - N/A   Overcast
10:54 PM 36.0 °F 31.1 °F 30.0 °F 79% 30.06 in 9.0 mi West 5.8 mph - 0.00 in Snow Light Snow